Regional Weather Roundup
Issued by NWS Upton, NY

Current Version | Previous Version | Graphics & Text | Print | Product List | Glossary Off
Versions: 1 2 3 4 5 6 7 8 9 10 11 12 13 14 15 16 17 18 19 20 21 22 23 24 25 26 27 28 29 30 31 32 33 34 35 36 37 38 39 40 41 42 43 44 45 46 47 48 49 50

000
ASUS41 KOKX 231405
RWROKX

Regional Weather Roundup
National Weather Service New York NY
900 AM EST FRI FEB 23 2018

Note: "FAIR" indicates few or no clouds below 12,000 feet with no
significant weather and/or obstructions to visibility.

NYZ071-072-176-178-NJZ106-104-231500-
New York City Metro Area

CITY           SKY/WX    TMP DP  RH WIND       PRES   REMARKS
Central Park   CLOUDY    37  32  82 CALM      30.66S
Bronx Bot Gard   N/A     36  32  87 NE13      30.66R WCI  27
Bronx Lehman C   N/A     36  32  87 E8          N/A  WCI  29
LaGuardia Arpt LGT RAIN  39  32  76 NE9       30.65S WCI  33
Queens College   N/A     36  32  87 E5          N/A  WCI  32
Kennedy Intl   LGT RAIN  37  33  85 NE9       30.65F WCI  30
Breezy Point     N/A     36 N/A N/A E8          N/A  WCI  29
Brooklyn Coll    N/A     37  32  81 NE6         N/A  WCI  33
Staten Island    N/A     37  32  81 E5          N/A  WCI  34
Newark/Liberty CLOUDY    38  32  79 NE5       30.65R WCI  34
Teterboro      DRIZZLE   37  32  82 E7        30.64S WCI  32
$$

NYZ177-179-078>081-231500-
Long Island New York

CITY           SKY/WX    TMP DP  RH WIND       PRES   REMARKS
Jones Beach      N/A     36 N/A N/A E14         N/A  WCI  27
Wantagh          N/A     37  32  81 NE7         N/A  WCI  32
Hempstead        N/A     37  34  87 NE3       30.66F
Matinecock Pt    N/A     36 N/A N/A E14         N/A  WCI  27
Farmingdale    CLOUDY    36  32  85 E12       30.62F WCI  28
MacArthur/ISP  LGT RAIN  37  33  85 E8        30.63F WCI  31
Stony Brook U    N/A     36  32  87 E6          N/A  WCI  31
Shirley        CLOUDY    37  33  85 VRB6      30.62F WCI  32
Mt Sinai Harb    N/A    N/A N/A N/A E9G16       N/A
Westhampton    CLOUDY    37  32  82 E7        30.64F WCI  32
East Hampton   CLOUDY    37  32  82 E9        30.64F WCI  30
Southold         N/A     36  32  87 E12         N/A  WCI  27
Montauk        NOT AVBL
$$

NYZ052-065-067-231500-
Hudson Valley

CITY           SKY/WX    TMP DP  RH WIND       PRES   REMARKS
White Plains   LGT RAIN  34  30  85 E10G18    30.61F WCI  26
Larchmont Harb   N/A     34 N/A N/A NE17        N/A  WCI  23
Croton On Huds   N/A     36 N/A N/A CALM        N/A
Somers           N/A     34  32  93 E8          N/A  WCI  27
Brewster         N/A     32  30  93 SE5         N/A  WCI  27
Newburgh       CLOUDY    30  30 100 E5        30.62S WCI  25
Montgomery     CLOUDY    31  27  85 N5        30.61S WCI  26
Otisville        N/A     30  30 100 NE2         N/A
Warwick          N/A     32  32 100 CALM        N/A
Suffern          N/A     34  32  93 E2          N/A
Poughkeepsie   CLOUDY    32  29  88 N3        30.62F
Albany         FOG       25  24  96 S6        30.60F VSB 3/4 WCI  18
$$

NJZ001-105-106-008-010-013-015-019>022-104-231500-
New Jersey

CITY           SKY/WX    TMP DP  RH WIND       PRES   REMARKS
Newark/Liberty CLOUDY    38  32  79 NE5       30.65R WCI  34
Teterboro      DRIZZLE   37  32  82 E7        30.64S WCI  32
Caldwell       CLOUDY    36  32  85 E6        30.64S WCI  31
Somerville     LGT RAIN  37  35  92 N3        30.62S FOG
Linden         DRIZZLE   38  32  80 CALM      30.65R
Perth Amboy      N/A     36 N/A N/A E9          N/A  WCI  29
Sussex         CLOUDY    32  31  96 NE3       30.61S FOG
Andover          N/A     34  33  96 CALM      30.61R
Trenton        RAIN      37  35  92 E7        30.61F FOG     WCI  32
Millville      LGT RAIN  40  39  97 NE7       30.59R FOG
Atlantic City  RAIN      42  41  96 E13       30.58  FOG
Wrightstown    NOT AVBL
Toms River     LGT RAIN  39  38  96 NE6       30.62S WCI  35
Belmar         LGT RAIN  37  35  92 NE9       30.63S WCI  30
$$

PAZ047>061-062-071-231500-
Eastern Pennsylvania

CITY           SKY/WX    TMP DP  RH WIND       PRES   REMARKS
Philadelphia   LGT RAIN  38  36  92 NE8       30.62  WCI  32
Allentown      LGT RAIN  37  33  85 E7        30.60F FOG     WCI  32
Scranton       CLOUDY    36  32  85 SE5       30.53F WCI  32
$$

CTZ002-004>006-009-010-012-RIZ004-006-007-MAZ004-011-015-231500-
Southern New England

 In CT

CITY           SKY/WX    TMP DP  RH WIND       PRES   REMARKS
Bradley Intl   PTSUNNY   31  28  89 N6        30.67F WCI  25
Hartford       FAIR      35  30  82 NE6       30.67F WCI  30
Danbury        PTSUNNY   34  30  85 E7        30.63F WCI  28
Wtrbury/Oxford PTSUNNY   33  29  85 E9        30.62F WCI  25
Norwalk Harbor   N/A     34 N/A N/A NE16        N/A  WCI  23
Bridgeport     CLOUDY    36  30  79 E13       30.64F WCI  27
Meriden        CLOUDY    35  30  82 VRB5      30.66F WCI  31
New Haven      CLOUDY    36  31  82 E7G17     30.65F WCI  30
Chester        PTSUNNY   36  30  80 E5G13     30.64F WCI  32
Groton         PTSUNNY   39  31  72 NE14      30.66F WCI  31
Willimantic    CLOUDY    35  30  82 VRB3      30.68S

 In RI

CITY           SKY/WX    TMP DP  RH WIND       PRES   REMARKS
Providence     PTSUNNY   38  34  85 NE6       30.68F WCI  33
Block Island   PTSUNNY   37  33  85 NE12      30.67S WCI  29
Westerly       FAIR      39  33  79 NE7       30.68S WCI  34

In MA

CITY           SKY/WX    TMP DP  RH WIND       PRES   REMARKS
Boston         PTSUNNY   36  30  79 N5        30.68F WCI  32
Worcester      CLOUDY    28  27  96 E3        30.63F
Westfield      CLOUDY    30  27  88 N3        30.66F
Provincetown   FAIR      40  26  57 E14       30.68F WCI  32
Nantucket      FAIR      41  31  67 E13       30.65F
$$

ANZ330-335-338-340-345-350-353-355-231500-
Coastal Marine Observations


STATION/POSITION TIME  SKY/WX   TEMP    WIND        PRES    VSBY  WAVE
                                AIR SEA DIR/SP/G                  HT/PER
                 (UTC)          (F)     (DEG/KT/KT) (MB)    (MI)  (FT/S)
NY Harb Entrance 1350            37 40   70/ 16/ 17 1037.1          4/ 7
20 S Fire Island 1350            41 42   80/ 16/ 19 1036.7          6/ 8
23 SSW Montauk P 1350            38 42   60/ 17/ 21 1037.6          5/ 5
15 E Barnegat Li 1330               42                N/A           7/ 8
Hudson Canyon    1350            45 46   90/ 17/ 21 1034.7          7/ 8
Kings Point      1336            36 38  100/  4/ 10 1038.4
Execution Rocks  NOT AVBL
Western LI Sound NOT AVBL
Central LI Sound 1330            35      60/ 12/ 16   N/A           1
Robbins Reef     1348            37      70/  8/ 10 1038.0
$$


>>>>>>>>>>>>>>>>>>>>>>>>>>>> KEY <<<<<<<<<<<<<<<<<<<<<<<<<<<
>                                                          <
>     SKY/WX - Sky Condition/Present Weather               <
>     TMP    - Temperature in Fahrenheit                   <
>     DP     - Dew Point in Fahrenheit                     <
>     RH     - Relative Humidity in Percent                <
>     WIND   - Direction (from) and Speed in MPH           <
>     PRES   - Mean Sea Level Pressure (inches of Hg)      <
>     WCI    - Wind Chill Index                            <
>     VSB    - Visibility in Miles                         <
>     HX     - Heat Index                                  <
>     TC     - Temperature in Celsius                      <
>     VRB    - Varibale Wind Direction                     <
>                                                          <
>>>>>>>>>>>>>>>>>>>>>>>>>>>> KEY <<<<<<<<<<<<<<<<<<<<<<<<<<<



USA.gov is the U.S. government's official web portal to all federal, state and local government web resources and services.